• în România
  • Lista ţărilor
  • Pe 7 zile
  • Temperatura apei
  • Hartă satelitară
  • Meteo pe hartă
  • Widget-uri
  • user-avatar
    Intrare

    Meteo pe oră la Darwin

    Astăzi, 18 Ianuarie, Joi

    Timp Temperatura Precipitaţii Vânt Presiune Umiditate
    00:00 +29°C° 0 mm 1 m/s 754 mmHg 79%
    01:00 +29°C° 0 mm 1 m/s 754 mmHg 80%
    02:00 +29°C° 0 mm 1 m/s 753 mmHg 81%
    03:00 +29°C° 0 mm 1 m/s 753 mmHg 81%
    04:00 +28°C° 0,3 mm 1 m/s 754 mmHg 82%
    05:00 +28°C° 0,3 mm 1 m/s 754 mmHg 82%
    06:00 +28°C° 0,3 mm 1 m/s 754 mmHg 83%
    07:00 +29°C° 0,2 mm 2 m/s 754 mmHg 80%
    08:00 +30°C° 0,2 mm 2 m/s 754 mmHg 78%
    09:00 +31°C° 0 mm 1 m/s 755 mmHg 76%
    10:00 +32°C° 0,8 mm 1 m/s 754 mmHg 71%
    11:00 +33°C° 0,8 mm 1 m/s 754 mmHg 66%
    12:00 +32°C° 0,8 mm 0 m/s 753 mmHg 61%
    13:00 +35°C° 0,1 mm 1 m/s 753 mmHg 59%
    14:00 +35°C° 0,1 mm 1 m/s 753 mmHg 58%
    15:00 +34°C° 0 mm 1 m/s 753 mmHg 63%
    16:00 +33°C° 0,1 mm 1 m/s 753 mmHg 66%
    17:00 +32°C° 0,1 mm 1 m/s 753 mmHg 68%
    18:00 +32°C° 0,1 mm 1 m/s 753 mmHg 71%
    19:00 +31°C° 0,4 mm 1 m/s 754 mmHg 74%
    20:00 +30°C° 0,4 mm 1 m/s 754 mmHg 78%
    21:00 +29°C° 0 mm 1 m/s 755 mmHg 86%
    22:00 +28°C° 1,1 mm 1 m/s 755 mmHg 88%
    23:00 +28°C° 1,1 mm 1 m/s 755 mmHg 89%

    Mâine, 19 Ianuarie, Vineri

    Timp Temperatura Precipitaţii Vânt Presiune Umiditate
    00:00 +28°C° 1,1 mm 2 m/s 754 mmHg 91%
    01:00 +28°C° 0,2 mm 2 m/s 754 mmHg 91%
    02:00 +27°C° 0,2 mm 2 m/s 754 mmHg 91%
    03:00 +27°C° 0,2 mm 1 m/s 753 mmHg 91%
    04:00 +27°C° 0,1 mm 1 m/s 754 mmHg 91%
    05:00 +27°C° 0,1 mm 1 m/s 754 mmHg 91%
    06:00 +27°C° 0,1 mm 1 m/s 754 mmHg 90%
    07:00 +28°C° 0,1 mm 1 m/s 754 mmHg 84%
    08:00 +30°C° 0,1 mm 1 m/s 754 mmHg 79%
    09:00 +31°C° 0,1 mm 1 m/s 754 mmHg 73%
    10:00 +33°C° 0,4 mm 1 m/s 754 mmHg 66%
    11:00 +35°C° 0,4 mm 1 m/s 753 mmHg 60%
    12:00 +36°C° 0,4 mm 1 m/s 753 mmHg 54%
    13:00 +35°C° 1,2 mm 1 m/s 753 mmHg 59%
    14:00 +35°C° 1,2 mm 2 m/s 752 mmHg 64%
    15:00 +34°C° 1,2 mm 3 m/s 752 mmHg 69%
    16:00 +33°C° 1,4 mm 3 m/s 752 mmHg 73%
    17:00 +31°C° 1,4 mm 3 m/s 752 mmHg 78%
    18:00 +30°C° 1,4 mm 3 m/s 752 mmHg 83%
    19:00 +29°C° 2 mm 3 m/s 752 mmHg 85%
    20:00 +29°C° 2 mm 3 m/s 753 mmHg 86%
    21:00 +28°C° 2 mm 3 m/s 753 mmHg 88%
    22:00 +28°C° 2,5 mm 3 m/s 753 mmHg 89%
    23:00 +28°C° 2,5 mm 3 m/s 753 mmHg 89%

    Poimâine, 20 Ianuarie, Sâmbătă

    Timp Temperatura Precipitaţii Vânt Presiune Umiditate
    00:00 +28°C° 2,5 mm 2 m/s 753 mmHg 90%
    01:00 +28°C° 1,6 mm 2 m/s 752 mmHg 90%
    02:00 +28°C° 1,6 mm 2 m/s 752 mmHg 90%
    03:00 +28°C° 1,6 mm 2 m/s 751 mmHg 90%
    04:00 +28°C° 1,7 mm 2 m/s 752 mmHg 90%
    05:00 +28°C° 1,7 mm 2 m/s 752 mmHg 90%
    06:00 +28°C° 1,7 mm 2 m/s 752 mmHg 90%
    07:00 +28°C° 1,7 mm 2 m/s 752 mmHg 87%
    08:00 +29°C° 1,7 mm 3 m/s 753 mmHg 83%
    09:00 +30°C° 1,7 mm 3 m/s 753 mmHg 80%
    10:00 +31°C° 1 mm 3 m/s 753 mmHg 78%
    11:00 +32°C° 1 mm 4 m/s 752 mmHg 76%
    12:00 +33°C° 1 mm 4 m/s 752 mmHg 74%
    13:00 +33°C° 1,1 mm 4 m/s 751 mmHg 75%
    14:00 +32°C° 1,1 mm 5 m/s 751 mmHg 76%
    15:00 +32°C° 1,1 mm 5 m/s 750 mmHg 77%
    16:00 +30°C° 2,2 mm 5 m/s 750 mmHg 81%
    17:00 +30°C° 2,2 mm 5 m/s 750 mmHg 84%
    18:00 +29°C° 2,2 mm 5 m/s 750 mmHg 88%
    19:00 +29°C° 3 mm 5 m/s 751 mmHg 89%
    20:00 +29°C° 3 mm 5 m/s 751 mmHg 90%
    21:00 +28°C° 3 mm 5 m/s 752 mmHg 90%
    22:00 +28°C° 4,2 mm 5 m/s 752 mmHg 91%
    23:00 +28°C° 4,2 mm 5 m/s 752 mmHg 91%

    21 Ianuarie, Duminică

    Timp Temperatura Precipitaţii Vânt Presiune Umiditate
    00:00 +28°C° 4,2 mm 5 m/s 751 mmHg 91%
    01:00 +28°C° 3,3 mm 5 m/s 751 mmHg 91%
    02:00 +28°C° 3,3 mm 6 m/s 750 mmHg 91%
    03:00 +28°C° 3,3 mm 6 m/s 750 mmHg 90%
    04:00 +28°C° 2,3 mm 6 m/s 750 mmHg 90%
    05:00 +28°C° 2,3 mm 6 m/s 750 mmHg 90%
    06:00 +28°C° 2,3 mm 6 m/s 750 mmHg 90%
    07:00 +28°C° 2,4 mm 6 m/s 750 mmHg 90%
    08:00 +29°C° 2,4 mm 6 m/s 751 mmHg 89%
    09:00 +29°C° 2,4 mm 7 m/s 751 mmHg 89%
    10:00 +29°C° 1,8 mm 7 m/s 751 mmHg 88%
    11:00 +29°C° 1,8 mm 7 m/s 751 mmHg 87%
    12:00 +30°C° 1,8 mm 7 m/s 750 mmHg 87%
    13:00 +30°C° 1,7 mm 7 m/s 750 mmHg 87%
    14:00 +29°C° 1,7 mm 7 m/s 749 mmHg 88%
    15:00 +29°C° 1,7 mm 7 m/s 749 mmHg 89%
    16:00 +29°C° 1,5 mm 7 m/s 749 mmHg 89%
    17:00 +29°C° 1,5 mm 7 m/s 749 mmHg 89%
    18:00 +29°C° 1,5 mm 7 m/s 749 mmHg 90%
    19:00 +29°C° 1,5 mm 7 m/s 750 mmHg 90%
    20:00 +29°C° 1,5 mm 7 m/s 750 mmHg 90%
    21:00 +28°C° 1,5 mm 7 m/s 751 mmHg 90%
    22:00 +28°C° 2 mm 8 m/s 750 mmHg 90%
    23:00 +28°C° 2 mm 8 m/s 750 mmHg 90%

    22 Ianuarie, Luni

    Timp Temperatura Precipitaţii Vânt Presiune Umiditate
    00:00 +28°C° 2 mm 9 m/s 750 mmHg 90%
    01:00 +28°C° 1,8 mm 9 m/s 749 mmHg 90%
    02:00 +28°C° 1,8 mm 10 m/s 748 mmHg 89%
    03:00 +28°C° 1,8 mm 10 m/s 748 mmHg 89%
    04:00 +28°C° 3,2 mm 11 m/s 748 mmHg 88%
    05:00 +29°C° 3,2 mm 11 m/s 748 mmHg 88%
    06:00 +29°C° 3,2 mm 11 m/s 748 mmHg 87%
    07:00 +29°C° 2,1 mm 11 m/s 748 mmHg 88%
    08:00 +29°C° 2,1 mm 11 m/s 749 mmHg 88%
    09:00 +29°C° 2,1 mm 11 m/s 749 mmHg 88%
    10:00 +29°C° 1,6 mm 11 m/s 749 mmHg 88%
    11:00 +29°C° 1,6 mm 11 m/s 749 mmHg 88%
    12:00 +29°C° 1,6 mm 11 m/s 749 mmHg 88%
    13:00 +29°C° 1,7 mm 11 m/s 748 mmHg 88%
    14:00 +29°C° 1,7 mm 11 m/s 748 mmHg 88%
    15:00 +29°C° 1,7 mm 11 m/s 747 mmHg 88%
    16:00 +29°C° 1,6 mm 11 m/s 748 mmHg 88%
    17:00 +29°C° 1,6 mm 11 m/s 748 mmHg 88%
    18:00 +29°C° 1,6 mm 11 m/s 748 mmHg 88%
    19:00 +29°C° 1,3 mm 10 m/s 748 mmHg 88%
    20:00 +29°C° 1,3 mm 10 m/s 749 mmHg 88%
    21:00 +29°C° 1,3 mm 10 m/s 749 mmHg 88%
    22:00 +29°C° 1,8 mm 10 m/s 749 mmHg 88%
    23:00 +29°C° 1,8 mm 10 m/s 749 mmHg 89%

    23 Ianuarie, Marţi

    Timp Temperatura Precipitaţii Vânt Presiune Umiditate
    00:00 +29°C° 1,8 mm 11 m/s 749 mmHg 89%
    01:00 +29°C° 3,3 mm 11 m/s 748 mmHg 88%
    02:00 +29°C° 3,3 mm 11 m/s 748 mmHg 87%
    03:00 +29°C° 3,3 mm 12 m/s 747 mmHg 86%
    04:00 +29°C° 1,3 mm 12 m/s 748 mmHg 86%
    05:00 +29°C° 1,3 mm 12 m/s 748 mmHg 86%
    06:00 +29°C° 1,3 mm 12 m/s 748 mmHg 86%
    07:00 +29°C° 1 mm 11 m/s 749 mmHg 86%
    08:00 +29°C° 1 mm 11 m/s 749 mmHg 86%
    09:00 +29°C° 1 mm 11 m/s 750 mmHg 87%
    10:00 +29°C° 1,3 mm 11 m/s 750 mmHg 87%
    11:00 +29°C° 1,3 mm 10 m/s 750 mmHg 87%
    12:00 +29°C° 1,3 mm 10 m/s 749 mmHg 87%
    13:00 +29°C° 1,1 mm 10 m/s 749 mmHg 86%
    14:00 +29°C° 1,1 mm 10 m/s 749 mmHg 86%
    15:00 +29°C° 1,1 mm 10 m/s 749 mmHg 86%
    16:00 +29°C° 0,9 mm 10 m/s 749 mmHg 86%
    17:00 +29°C° 0,9 mm 10 m/s 749 mmHg 85%
    18:00 +29°C° 0,9 mm 9 m/s 749 mmHg 85%
    19:00 +29°C° 1 mm 9 m/s 750 mmHg 85%
    20:00 +29°C° 1 mm 9 m/s 750 mmHg 85%
    21:00 +29°C° 1 mm 9 m/s 751 mmHg 86%
    22:00 +29°C° 1,3 mm 9 m/s 750 mmHg 86%
    23:00 +29°C° 1,3 mm 9 m/s 750 mmHg 86%
    Arată mai mult